Flag for U.S.A. Weather past 2 weeks in Flagstaff, Arizona, U.S.A.

Now
37 °F

Clear.


Feels Like: 37 °F
Forecast: 38 / 66 °F
Wind: No wind

Location: Flagstaff Pulliam Airport

Current Time: Oct 1, 2014 at 5:15:58 AM

Latest Report: Oct 1, 2014 at 4:57 AM


Visibility: 10 mi

Pressure: 29.85 "Hg

Humidity: 86%

Dew point: 33 °F

Location of FlagstaffLocation

Historic Weather in Flagstaff — Graph

°F

Flagstaff temperature yesterday

Maximum temperature yesterday: 65 °F (at 12:57 PM)
Minimum temperature yesterday: 32 °F (at 5:57 AM)
Average temperature yesterday: 49 °F

Past Weeks' High & Low Weather Summary

 TemperatureHumidityPressure
High78 °F (Sep 20, 12:57 PM)96% (Sep 28, 4:57 AM)30.37 "Hg (Sep 28, 4:57 AM)
Low32 °F (Sep 29, 5:57 AM)24% (Sep 23, 3:57 PM)29.79 "Hg (Sep 28, 1:57 AM)
Average57 °F70%29.99 "Hg
* Reported Sep 16 3:57 AM — Oct 1 3:57 AM, Flagstaff, Weather by CustomWeather, © 2014

Note: Actual official high and low records may vary slightly from our data, if they occured in-between our weather recording intervals... More about our weather records

Advertising

Flagstaff weather history for previous 24 hours

 ConditionsComfort  
Time TempWeatherWind HumidityBarometerVisibility
3:57 AM
Oct 1
37 °FClear.No wind86%29.83 "Hg10 mi
2:57 AM40 °FClear.No wind80%29.81 "Hg10 mi
1:57 AM41 °FClear.3 mph80%29.83 "Hg10 mi
12:57 AM43 °FClear.3 mph74%29.82 "Hg10 mi
11:57 PM
Sep 30
41 °FClear.3 mph80%29.85 "Hg10 mi
10:57 PM43 °FClear.No wind76%29.85 "Hg10 mi
9:57 PM46 °FClear.No wind68%29.86 "Hg10 mi
8:57 PM49 °FClear.6 mph61%29.86 "Hg10 mi
7:57 PM50 °FClear.7 mph61%29.89 "Hg10 mi
6:57 PM55 °FClear.7 mph47%29.90 "Hg10 mi
5:57 PM59 °FSunny.9 mph42%29.89 "Hg10 mi
4:57 PM63 °FSunny.15 mph37%29.87 "Hg10 mi
3:57 PM65 °FSunny.14 mph36%29.85 "Hg10 mi
2:57 PM65 °FSunny.10 mph33%29.87 "Hg10 mi
1:57 PM64 °FSunny.13 mph37%29.88 "Hg10 mi
12:57 PM65 °FSunny.6 mph32%29.89 "Hg10 mi
11:57 AM62 °FSunny.8 mph34%29.91 "Hg10 mi
10:57 AM60 °FSunny.9 mph38%29.92 "Hg10 mi
9:57 AM58 °FSunny.6 mph43%29.93 "Hg10 mi
8:57 AM55 °FSunny.No wind51%29.95 "Hg10 mi
7:57 AM45 °FSunny.No wind76%29.96 "Hg10 mi
6:57 AM34 °FSunny.No wind88%30.00 "Hg10 mi
5:57 AM32 °FClear.No wind92%29.98 "Hg10 mi
Weather by CustomWeather, © 2014

See weather overviewHow to use our weather pages